User: anonymous   Login
Location: Dulzura
(32.6442°N, 116.7814°W)
Time: 22:10:18
(UTC+00:00)
Language:

ZACube-1 - Orbit

View from above orbital plane
View from above orbital plane
View from above satellite
View from above satellite

Ground track
Ground track

The orbit data is extracted from the following two-line orbital elements,

1 39417U 13066B   23090.45642560  .00006934  00000-0  81061-3 0  9997
2 39417  97.6772  54.9225 0055376 181.0346 179.0763 14.84294887505660
Epoch (UTC): 31 March 2023 10:57:15
Eccentricity: 0.0055376
inclination: 97.6772°
perigee height: 577 km
apogee height: 654 km
right ascension of ascending node: 54.9225°
argument of perigee: 181.0346°
revolutions per day: 14.84294887
mean anomaly at epoch: 179.0763°
orbit number at epoch: 50566

The dashed part of the orbit path shows where the satellite is in the earth's shadow,  

DLR